AirNav   Air Wisconsin Up To $57,000 Bonus
 
 888 users online  

80C Lone Hickory Airport
Yadkinville, North Carolina, USA

GOING TO YADKINVILLE?


FAA INFORMATION EFFECTIVE 16 JUNE 2022

Location

FAA Identifier: 80C
Lat/Long: 36-03-37.8520N 080-41-24.3600W
36-03.630867N 080-41.406000W
36.0605144,-80.6901000
(estimated)
Elevation: 1015 ft. / 309 m (estimated)
Variation: 06W (1995)
From city: 6 miles S of YADKINVILLE, NC
Time zone: UTC -4 (UTC -5 during Standard Time)
Zip code: 27055

Airport Operations

Airport use: Open to the public
Activation date: 12/1997
Control tower: no
ARTCC: ATLANTA CENTER
FSS: RALEIGH FLIGHT SERVICE STATION
NOTAMs facility: RDU (NOTAM-D service available)
Attendance: IREG
Wind indicator: yes
Segmented circle: no

Airport Communications

CTAF: 122.9

Airport Services

Runway Information

Runway 16/34

Dimensions: 2000 x 60 ft. / 610 x 18 m
Surface: turf, in good condition
RUNWAY 16  RUNWAY 34
Latitude: 36-03.773400N36-03.488333N
Longitude: 080-41.508000W080-41.304000W
Elevation: 943.0 ft.1015.0 ft.
Traffic pattern: leftleft
Runway heading: 156 magnetic, 150 true336 magnetic, 330 true
Obstructions: 10 ft. road, 6 ft. from runway, 25 ft. left and right of centerline48 ft. trees, 299 ft. from runway, 115 ft. right of centerline, 6:1 slope to clear

Airport Ownership and Management from official FAA records

Ownership: Privately-owned
Owner: HAROLD DEAN HOLCOMB
1205 RUNWAY TRAIL
YADKINVILLE, NC 27055
Phone (336) 468-0641
Manager: HAROLD DEAN HOLCOMB
1205 RUNWAY TRAIL
YADKINVILLE, NC 27055
Phone (336) 468-0641

Airport Operational Statistics

Aircraft based on the field: 6
Single engine airplanes: 6
    
Aircraft operations: avg 46/month *
91% local general aviation
9% transient general aviation
* for 12-month period ending 16 August 2019

Additional Remarks

ACFT OPERATING FM PINEY RIDGE ARPT 1.3 MI NW.
PLINES 500-1000 FT N RY 16 THLD.
RY 16/34 HAS 3% GRADE; WINDS PERMITTING TKOF RY 16 LND RY 34.
NO FLIGHT TRAINING OR STUDENT PILOTS; ONLY EXPERIENCED PILOTS PERMITTED.
RY 16 DEPARTURES MAKE LEFT TURN FOR NOISE & OBSTRUCTION AVOIDANCE.
FOR CD CTC ATLANTA ARTCC AT 770-210-7692.
RUNWAY CLOSED TO TURBINE AIRCRAFT AND GROSS WEIGHTS GREATER THAN 5000 POUNDS EXCEPT WITH PRIOR PERMISSION (DUE TO SOFT TURF)

Instrument Procedures

There are no published instrument procedures at 80C.

Some nearby airports with instrument procedures:

KZEF - Elkin Municipal Airport (14 nm N)
8A7 - Twin Lakes Airport (14 nm SE)
KSVH - Statesville Regional Airport (22 nm SW)
KUKF - Wilkes County Airport (22 nm NW)
KINT - Smith Reynolds Airport (23 nm E)
 
Loc | Ops | Rwys | IFR | FBO | Links
Com | Nav | Svcs | Stats | Notes
Area around 80C (Lone Hickory Airport)
 
Road maps at: MapQuest Bing Google
 
Aerial photo
No photo
 
Sectional chart

 
Airport distance calculator
Flying to Lone Hickory Airport? Find the distance to fly.

From to 80C

Sunrise and sunset
Times for 02-Jul-2022
 Local
(UTC-4)
 Zulu
(UTC)
Morning civil twilight05:4109:41
Sunrise06:1110:11
Sunset20:4300:43
Evening civil twilight21:1301:13

Current date and time
Zulu (UTC)  03-Jul-2022 01:07:35
Local (UTC-4)  02-Jul-2022 21:07:35
 
METAR
KUKF 
22nm NW 
030055Z AUTO 04008KT 10SM SCT055 SCT070 BKN100 22/20 A3010 RMK AO2 LTG DSNT ALQS
KSVH 
23nm SW 
030055Z AUTO 20003KT 10SM SCT049 SCT055 SCT070 27/21 A3002 RMK AO2 T02710211
KINT 
23nm E 
030101Z 32015G25KT 1 1/2SM +TSRA BR BKN040 BKN050 OVC080 21/20 A3007 RMK AO2 LTG DSNT ALQDS P0010 T02110200
KEXX 
25nm SE 
030055Z AUTO 00000KT 10SM SCT048 SCT100 27/21 A2999 RMK AO2 T02670208
KMWK 
25nm N 
030055Z AUTO 00000KT 10SM -RA SCT120 20/19 A3008 RMK AO2 P0047 T02000194
KRUQ 
26nm S 
030055Z AUTO 24007KT 10SM SCT060 SCT075 28/21 A3000 RMK AO2 T02770208
KGSO 
36nm E 
030054Z 32012G17KT 10SM TS BKN055CB BKN250 28/20 A3002 RMK AO2 TSB44 SLP155 CONS LTGICCG NW CB NW MOV S T02830200
KHKY 
38nm SW 
030101Z AUTO 29008KT 10SM VCTS FEW065 BKN110 25/20 A3005 RMK AO2 LTG DSNT ALQDS T02500200
KJQF 
41nm S 
030050Z 00000KT 10SM SCT050 24/21 A3003
KGEV 
42nm NW 
030055Z AUTO 00000KT 10SM CLR 23/19 A3016 RMK AO2 LTG DSNT E AND S T02260185
TAF
KINT 
23nm E 
030024Z 0300/0324 16004KT P6SM VCTS SCT050CB BKN250 TEMPO 0300/0303 VRB20G40KT 1/2SM +TSRA SCT015 BKN035CB FM030400 VRB03KT P6SM SCT010 BKN120 FM031400 VRB04KT P6SM SCT060 BKN250 FM031800 VRB05KT P6SM VCTS BKN050CB BKN150 PROB30 0319/0322 2SM -TSRA BKN050CB
NOTAMs
Click for the latest NOTAMs
NOTAMs are issued by the DoD/FAA and will open in a separate window not controlled by AirNav.

 

 
 

Would you like to see your business listed on this page?

 If your business provides an interesting product or service to pilots, flight crews, aircraft, or users of the Lone Hickory Airport, you should consider listing it here.  To start the listing process, click on the button below
 
Add a business
 

Other Pages about Lone Hickory Airport

Update a link
 
Copyright © AirNav, LLC. All rights reserved. Privacy Policy  Contact